| time (UTC) | temp F | wind direction | speed knots | gust knots | rain 1hr in | rain 24hr in | rain mn in | humidity % | barometer mb |
| 20260504214531 | 76 | 314 | 0.0 | 2.6 | 0.00 | 0.00 | 0.00 | 45 | 1014.2 |
| 20260504213036 | 77 | 307 | 1.7 | 5.2 | 0.00 | 0.00 | 0.00 | 43 | 1014.2 |
| 20260504211551 | 77 | 266 | 0.0 | 4.3 | 0.00 | 0.00 | 0.00 | 42 | 1014.4 |
| 20260504210038 | 77 | 290 | 0.9 | 4.3 | 0.00 | 0.00 | 0.00 | 42 | 1014.5 |
| 20260504204533 | 77 | 0 | 0.0 | 5.2 | 0.00 | 0.00 | 0.00 | 42 | 1014.7 |
| 20260504203029 | 78 | 0 | 0.0 | 2.6 | 0.00 | 0.00 | 0.00 | 42 | 1014.6 |
| 20260504201538 | 78 | 90 | 0.9 | 3.5 | 0.00 | 0.00 | 0.00 | 43 | 1014.8 |
| 20260504200036 | 79 | 0 | 0.0 | 2.6 | 0.00 | 0.00 | 0.00 | 40 | 1014.9 |
| 20260504194548 | 81 | 298 | 0.9 | 3.5 | 0.00 | 0.00 | 0.00 | 38 | 1015.2 |
| 20260504193038 | 81 | 133 | 0.0 | 1.7 | 0.00 | 0.00 | 0.00 | 38 | 1015.4 |
| 20260504191542 | 80 | 0 | 0.0 | 3.5 | 0.00 | 0.00 | 0.00 | 42 | 1015.6 |
| 20260504190044 | 81 | 180 | 0.9 | 4.3 | 0.00 | 0.00 | 0.00 | 42 | 1015.7 |
| 20260504184545 | 80 | 311 | 0.9 | 3.5 | 0.00 | 0.00 | 0.00 | 41 | 1016.0 |
| 20260504183040 | 80 | 0 | 0.0 | 3.5 | 0.00 | 0.00 | 0.00 | 44 | 1016.2 |
| 20260504181538 | 81 | 280 | 0.9 | 3.5 | 0.00 | 0.00 | 0.00 | 43 | 1016.5 |
| 20260504180039 | 80 | 221 | 1.7 | 4.3 | 0.00 | 0.00 | 0.00 | 41 | 1016.5 |
| 20260504174540 | 80 | 302 | 0.9 | 2.6 | 0.00 | 0.00 | 0.00 | 43 | 1016.8 |
| 20260504173031 | 81 | 231 | 0.0 | 1.7 | 0.00 | 0.00 | 0.00 | 44 | 1016.8 |
| 20260504171540 | 80 | 213 | 0.9 | 4.3 | 0.00 | 0.00 | 0.00 | 45 | 1017.0 |
| 20260504081539 | 48 | 0 | 0.0 | 0.0 | 0.00 | 0.00 | 0.00 | 90 | 1017.7 |
| 20260504044537 | 52 | 0 | 0.0 | 0.0 | 0.00 | 0.00 | 0.00 | 82 | 1018.9 |
| 20260504043034 | 53 | 0 | 0.0 | 0.0 | 0.00 | 0.00 | 0.00 | 81 | 1019.1 |
| 20260504041535 | 53 | 0 | 0.0 | 0.0 | 0.00 | 0.00 | 0.00 | 79 | 1019.1 |
| 20260504040038 | 54 | 0 | 0.0 | 0.0 | 0.00 | 0.00 | 0.00 | 77 | 1019.2 |
| 20260504034537 | 54 | 0 | 0.0 | 0.0 | 0.00 | 0.00 | 0.00 | 76 | 1019.3 |
| 20260504033036 | 55 | 0 | 0.0 | 0.0 | 0.00 | 0.00 | 0.00 | 74 | 1019.5 |
| 20260504031548 | 56 | 0 | 0.0 | 0.0 | 0.00 | 0.00 | 0.00 | 73 | 1019.4 |
| 20260504030043 | 56 | 0 | 0.0 | 0.0 | 0.00 | 0.00 | 0.00 | 72 | 1019.4 |
| 20260504024542 | 57 | 0 | 0.0 | 0.0 | 0.00 | 0.00 | 0.00 | 69 | 1019.2 |
| 20260504023038 | 57 | 0 | 0.0 | 0.0 | 0.00 | 0.00 | 0.00 | 70 | 1019.2 |
| 20260504021534 | 58 | 0 | 0.0 | 0.0 | 0.00 | 0.00 | 0.00 | 65 | 1019.0 |
| 20260504020040 | 59 | 0 | 0.0 | 0.0 | 0.00 | 0.00 | 0.00 | 62 | 1018.9 |
| 20260504014543 | 59 | 0 | 0.0 | 0.0 | 0.00 | 0.00 | 0.00 | 61 | 1019.1 |
| 20260504013043 | 60 | 0 | 0.0 | 0.0 | 0.00 | 0.00 | 0.00 | 60 | 1018.7 |
| 20260504011540 | 61 | 0 | 0.0 | 0.0 | 0.00 | 0.00 | 0.00 | 58 | 1018.7 |
| 20260504010036 | 61 | 0 | 0.0 | 0.0 | 0.00 | 0.00 | 0.00 | 57 | 1018.6 |
| 20260504004534 | 61 | 0 | 0.0 | 0.0 | 0.00 | 0.00 | 0.00 | 57 | 1018.5 |
| 20260504003040 | 61 | 0 | 0.0 | 0.0 | 0.00 | 0.00 | 0.00 | 59 | 1018.4 |
| 20260504001548 | 62 | 0 | 0.0 | 0.0 | 0.00 | 0.00 | 0.00 | 60 | 1018.2 |
| 20260504000037 | 63 | 0 | 0.0 | 0.0 | 0.00 | 0.00 | 0.00 | 57 | 1018.3 |
| 20260503234558 | 64 | 0 | 0.0 | 0.0 | 0.00 | 0.00 | 0.00 | 57 | 1018.1 |
| 20260503233046 | 65 | 0 | 0.0 | 0.0 | 0.00 | 0.00 | 0.00 | 55 | 1018.3 |
| 20260503231540 | 66 | 0 | 0.0 | 0.9 | 0.00 | 0.00 | 0.00 | 49 | 1018.2 |
| 20260503230038 | 67 | 0 | 0.0 | 0.9 | 0.00 | 0.00 | 0.00 | 50 | 1018.3 |
| 20260503224536 | 67 | 203 | 0.0 | 1.7 | 0.00 | 0.00 | 0.00 | 45 | 1018.3 |
| 20260503223042 | 67 | 151 | 0.0 | 1.7 | 0.00 | 0.00 | 0.00 | 44 | 1018.2 |
| 20260503221548 | 68 | 0 | 0.0 | 0.9 | 0.00 | 0.00 | 0.00 | 46 | 1018.4 |
| 20260503220040 | 68 | 127 | 0.0 | 1.7 | 0.00 | 0.00 | 0.00 | 43 | 1018.5 |